Change the Weather History Date:

Thursday, January 12, 2012

  Actual Average Record
Temperature  
Mean Temperature 36 °F -  
Max Temperature 44 °F 45 °F 59 °F (1986)
Min Temperature 27 °F 35 °F 13 °F (1963)
Degree Days  
Heating Degree Days 30    
Moisture  
Dew Point 27 °F    
Average Humidity 70    
Maximum Humidity 89    
Minimum Humidity 43    
Precipitation  
Precipitation 0.00 in - - ()
Sea Level Pressure  
Sea Level Pressure 30.34 in    
Wind  
Wind Speed 2 mph (NW)    
Max Wind Speed 6 mph    
Max Gust Speed -    
Visibility 10 miles    
Events      
Averages and records for this station are not official NWS values.
T = Trace of Precipitation, MM = Missing Value Source: NWS Daily Summary

Daily Weather History Graph

Daily Weather History Graph

Search for Another Location

Airport or City:

Trip Planner

Search our weather history database for the weather conditions in past years. The results will help you decide how hot, cold, wet, or windy it might be!

Date:

Astronomy

Jan. 12, 2012 Rise Set
Actual Time 7:54 AM PST 4:40 PM PST
Civil Twilight 7:19 AM PST 5:15 PM PST
Nautical Twilight 6:40 AM PST 5:54 PM PST
Astronomical Twilight 6:03 AM PST 6:31 PM PST
Moon 9:13 PM PST (1/12) 9:22 AM PST (1/12)
Length of Visible Light 9h 56m
Length of Day
8h 46m
Waning Gibbous, 86% of the Moon is Illuminated
Jan 12
Waning Gibbous
Jan 16
Last Quarter
Jan 22
New
Jan 30
First Quarter
Feb 7
Full

Hourly Weather History & Observations

Time (PST) Temp. Windchill Dew Point Humidity Pressure Visibility Wind Dir Wind Speed Gust Speed Precip Events Conditions
12:53 AM 27.0 °F 20.5 °F 24.1 °F 89% 30.39 in 10.0 mi SSE 5.8 mph - N/A   Clear
1:53 AM 33.8 °F - 24.8 °F 70% 30.41 in 10.0 mi Calm Calm - N/A   Clear
2:53 AM 30.0 °F 25.2 °F 24.1 °F 79% 30.39 in 10.0 mi SW 4.6 mph - N/A   Clear
3:53 AM 30.0 °F - 24.1 °F 79% 30.36 in 10.0 mi Calm Calm - N/A   Clear
4:53 AM 30.9 °F 27.5 °F 25.0 °F 79% 30.37 in 10.0 mi North 3.5 mph - N/A   Clear
5:53 AM 30.9 °F - 25.0 °F 79% 30.37 in 10.0 mi Calm Calm - N/A   Clear
6:53 AM 30.2 °F - 26.6 °F 86% 30.36 in 10.0 mi Calm Calm - N/A   Clear
7:53 AM 32.0 °F - 26.1 °F 79% 30.36 in 10.0 mi Calm Calm - N/A   Scattered Clouds
8:53 AM 32.0 °F - 27.0 °F 82% 30.35 in 10.0 mi Calm Calm - N/A   Overcast
9:53 AM 35.1 °F - 28.9 °F 78% 30.34 in 10.0 mi Calm Calm - N/A   Mostly Cloudy
10:53 AM 37.0 °F - 28.0 °F 70% 30.34 in 10.0 mi Calm Calm - N/A   Mostly Cloudy
11:53 AM 39.9 °F - 30.0 °F 68% 30.33 in 10.0 mi Calm Calm - N/A   Mostly Cloudy
12:53 PM 42.1 °F - 27.0 °F 55% 30.30 in 10.0 mi Calm Calm - N/A   Mostly Cloudy
1:53 PM 44.1 °F 42.5 °F 23.0 °F 43% 30.30 in 10.0 mi NW 3.5 mph - N/A   Mostly Cloudy
2:53 PM 44.1 °F - 27.0 °F 51% 30.30 in 10.0 mi Calm Calm - N/A   Clear
3:53 PM 43.0 °F - 27.0 °F 53% 30.31 in 10.0 mi Calm Calm - N/A   Clear
4:53 PM 42.1 °F - 27.0 °F 55% 30.31 in 10.0 mi Calm Calm - N/A   Clear
5:53 PM 41.0 °F - 24.8 °F 53% 30.30 in 10.0 mi Calm Calm - N/A   Clear
6:53 PM 42.1 °F 40.2 °F 28.0 °F 58% 30.32 in 10.0 mi NNW 3.5 mph - N/A   Clear
7:53 PM 39.9 °F - 30.0 °F 68% 30.32 in 10.0 mi Calm Calm - N/A   Clear
8:53 PM 39.9 °F - 30.0 °F 68% 30.30 in 10.0 mi Calm Calm - N/A   Clear
9:53 PM 37.9 °F - 30.0 °F 73% 30.32 in 10.0 mi Calm Calm - N/A   Clear
10:53 PM 35.1 °F - 28.0 °F 76% 30.33 in 10.0 mi Calm Calm - N/A   Clear
11:53 PM 33.1 °F - 28.0 °F 82% 30.33 in 10.0 mi Calm Calm - N/A   Clear